(153778) = 2001 VN45

Discovered at Socorro on 2001-11-09 by LINEAR.

Orbit

Orbit type: Main Belt

Note: WebGL enabled browser required.

epoch2024-03-31.0
epoch JD2460400.5
perihelion date2026-01-13.14635
perihelion JD2461053.64635
argument of perihelion (°)145.45955
ascending node (°)251.41828
inclination (°)14.36674
eccentricity0.1081137
perihelion distance (AU)2.2817266
Tisserand w.r.t. Jupiter3.4
ΔV w.r.t. Earth (km/sec)10.5
semimajor axis (AU)2.5583155
mean anomaly (°)202.68027
mean daily motion (°/day)0.24086440
aphelion distance (AU)2.835
period (years)4.09
P-vector [x]0.78311005
P-vector [y]0.49981337
P-vector [z]0.37003411
Q-vector [x]-0.57569353
Q-vector [y]0.80767950
Q-vector [z]0.12740009
absolute magnitude15.31
phase slope0.15
uncertainty0
referenceMPEC 2024-C115
observations used1073
oppositions15
arc length (days)15068
first opposition used1982
last opposition used2023
residual rms (arc-secs)0.67
perturbers coarse indicatorM-v
perturbers precise indicator003Ek
first observation date used1982-02-19.0
last observation date used2023-05-23.0
computer nameMPCLINUX
JD of orbit computation2456819.562931
perihelion JD uncertainty (days)2.0322E-04
argument of perihelion uncertainty (°)7.0073E-05
ascending node uncertainty (°)1.6750E-05
inclination uncertainty (°)1.2683E-05
eccentricity uncertainty 4.6855E-07
perihelion distance uncertainty (AU)1.2307E-06
Minimum Orbit Intersection Distances (in AU)
for orbit epoch: 2460200.5, reference: E2024-CB5
Mercury1.96404
Venus1.57117
Earth1.30305
Mars0.79598
Jupiter2.54727
Saturn6.66307
Uranus15.7967
Neptune27.5947

Observations

1083 total observations over interval: 1982 02 19.55906 – 2023 05 23.167028
These data are available for download (format description).

Date (UT) J2000 RA J2000 Dec Magn Location Ref
1982 02 19.55906 09 04 38.24 -06 01 37.8   260 – Siding Spring Observatory-DSS MPS 150645
1982 02 19.59379 09 04 36.47 -06 01 28.5   260 – Siding Spring Observatory-DSS MPS 150645
1991 04 13.63369 14 39 59.40 -28 15 42.9   260 – Siding Spring Observatory-DSS MPS 150645
1993 11 21.41250 07 54 28.19 +11 53 27.0   261 – Palomar Mountain-DSS MPS 150645
1993 11 21.45069 07 54 28.21 +11 53 09.9   261 – Palomar Mountain-DSS MPS 150645
1993 12 10.37292 07 49 16.97 +09 23 53.2   261 – Palomar Mountain-DSS MPS 150645
1993 12 10.41111 07 49 15.69 +09 23 37.2   261 – Palomar Mountain-DSS MPS 150645
2001 10 26.39062 06 18 17.57 +23 13 42.2 19.1   704 – Lincoln Laboratory ETS, New Mexico MPS 44768
2001 10 26.40717 06 18 17.77 +23 13 35.3 19.6   704 – Lincoln Laboratory ETS, New Mexico MPS 44768
2001 10 26.44024 06 18 18.20 +23 13 23.6 19.2   704 – Lincoln Laboratory ETS, New Mexico MPS 44768
2001 10 26.45673 06 18 18.38 +23 13 17.3 19.2   704 – Lincoln Laboratory ETS, New Mexico MPS 44768
2001 11 09.43095 06 18 24.73 +21 40 48.6 18.6   704 – Lincoln Laboratory ETS, New Mexico MPS 41303
2001 11 09.44533 06 18 24.48 +21 40 42.2 19.3   704 – Lincoln Laboratory ETS, New Mexico MPS 41303
2001 11 09.45970 06 18 24.25 +21 40 36.8 18.7   704 – Lincoln Laboratory ETS, New Mexico MPS 41303
2001 11 09.47408 06 18 24.00 +21 40 30.7 19.4   704 – Lincoln Laboratory ETS, New Mexico MPS 41303
2001 11 09.48848 06 18 23.76 +21 40 24.3 19.2   704 – Lincoln Laboratory ETS, New Mexico MPS 41303
2001 11 12.36993 06 17 34.05 +21 20 02.8 19.0   704 – Lincoln Laboratory ETS, New Mexico MPS 41303
2001 11 12.38427 06 17 33.72 +21 19 57.4 19.7   704 – Lincoln Laboratory ETS, New Mexico MPS 41303
2001 11 12.41280 06 17 33.21 +21 19 45.1 19.5   704 – Lincoln Laboratory ETS, New Mexico MPS 41303
2001 11 20.46354 06 13 43.23 +20 20 53.5 19.3   704 – Lincoln Laboratory ETS, New Mexico MPS 44768
2001 11 20.47823 06 13 42.68 +20 20 48.5 18.8   704 – Lincoln Laboratory ETS, New Mexico MPS 44768
2001 11 20.49293 06 13 42.13 +20 20 41.9 18.8   704 – Lincoln Laboratory ETS, New Mexico MPS 44768
2001 11 21.44224 06 13 06.71 +20 13 36.2 18.7   704 – Lincoln Laboratory ETS, New Mexico MPS 55125
2001 11 21.45691 06 13 06.13 +20 13 28.5 18.8   704 – Lincoln Laboratory ETS, New Mexico MPS 55125
2001 11 21.47160 06 13 05.57 +20 13 21.7 19.3   704 – Lincoln Laboratory ETS, New Mexico MPS 55125
2001 11 21.48629 06 13 04.97 +20 13 15.3 19.0   704 – Lincoln Laboratory ETS, New Mexico MPS 55125
2001 12 11.30576 05 55 38.80 +17 42 07.9 18.0   704 – Lincoln Laboratory ETS, New Mexico MPS 44768
2001 12 11.32173 05 55 37.78 +17 42 00.8 18.2   704 – Lincoln Laboratory ETS, New Mexico MPS 44768
2001 12 11.33689 05 55 36.76 +17 41 53.7 18.2   704 – Lincoln Laboratory ETS, New Mexico MPS 44768
2001 12 11.35188 05 55 35.80 +17 41 46.9 18.3   704 – Lincoln Laboratory ETS, New Mexico MPS 44768
2001 12 18.34357 05 48 07.52 +16 50 16.6 18.2   704 – Lincoln Laboratory ETS, New Mexico MPS 44768
2001 12 18.35892 05 48 06.50 +16 50 09.9 18.4   704 – Lincoln Laboratory ETS, New Mexico MPS 44768
2001 12 18.37563 05 48 05.39 +16 50 02.8 18.3   704 – Lincoln Laboratory ETS, New Mexico MPS 44768
2001 12 21.28756 05 44 59.11 +16 29 31.2 18.3   704 – Lincoln Laboratory ETS, New Mexico MPS 46685
2001 12 21.28768 05 44 59.08 +16 29 30.2 17.8   704 – Lincoln Laboratory ETS, New Mexico MPS 46685
2001 12 21.30258 05 44 58.12 +16 29 24.4 18.7   704 – Lincoln Laboratory ETS, New Mexico MPS 46685
2001 12 21.30270 05 44 58.11 +16 29 23.9 18.6   704 – Lincoln Laboratory ETS, New Mexico MPS 46685
2001 12 21.31760 05 44 57.17 +16 29 18.4 18.5   704 – Lincoln Laboratory ETS, New Mexico MPS 46685
2001 12 21.31773 05 44 57.12 +16 29 17.3 18.0   704 – Lincoln Laboratory ETS, New Mexico MPS 46685
2001 12 21.33263 05 44 56.15 +16 29 12.2 18.4   704 – Lincoln Laboratory ETS, New Mexico MPS 46685
2001 12 21.33276 05 44 56.14 +16 29 11.6 18.0   704 – Lincoln Laboratory ETS, New Mexico MPS 46685
2001 12 21.34801 05 44 55.16 +16 29 05.3 18.8   704 – Lincoln Laboratory ETS, New Mexico MPS 46685
2001 12 21.34813 05 44 55.13 +16 29 05.2 18.5   704 – Lincoln Laboratory ETS, New Mexico MPS 46685
2002 01 02.90439 05 32 36.22 +15 10 07.1 18.6   106 – Crni Vrh MPS 44768
2002 01 02.92840 05 32 34.96 +15 09 59.7 18.9   106 – Crni Vrh MPS 44768
2002 01 02.95114 05 32 33.83 +15 09 51.5 19.5   106 – Crni Vrh MPS 44768
2002 01 03.86279 05 31 46.89 +15 04 52.1 18.5   106 – Crni Vrh MPS 44768
2002 01 03.88160 05 31 45.77 +15 04 46.1 19.2   106 – Crni Vrh MPS 44768
2002 01 03.90301 05 31 44.74 +15 04 39.1 19.1   106 – Crni Vrh MPS 44768
2002 01 09.24000 05 27 33.80 +14 37 38.7 19.0   704 – Lincoln Laboratory ETS, New Mexico MPS 55125
2002 01 09.25541 05 27 33.09 +14 37 33.9 19.5   704 – Lincoln Laboratory ETS, New Mexico MPS 55125
2002 01 09.27182 05 27 32.36 +14 37 29.5 19.2   704 – Lincoln Laboratory ETS, New Mexico MPS 55125
2002 01 09.28728 05 27 31.70 +14 37 24.9 19.3   704 – Lincoln Laboratory ETS, New Mexico MPS 55125
2002 01 09.30282 05 27 31.03 +14 37 20.6 19.1   704 – Lincoln Laboratory ETS, New Mexico MPS 55125
2002 01 14.22984 05 24 21.06 +14 15 57.5 19.4   704 – Lincoln Laboratory ETS, New Mexico MPS 55125
2002 01 14.24522 05 24 20.53 +14 15 55.1 19.2   704 – Lincoln Laboratory ETS, New Mexico MPS 55125
2002 01 14.26163 05 24 19.93 +14 15 50.3 19.6   704 – Lincoln Laboratory ETS, New Mexico MPS 55125
2002 01 14.27803 05 24 19.33 +14 15 46.9 18.9   704 – Lincoln Laboratory ETS, New Mexico MPS 55125
2002 01 14.29325 05 24 18.74 +14 15 42.6 18.9   704 – Lincoln Laboratory ETS, New Mexico MPS 55125
2005 09 14.41979 05 01 03.32 +28 49 10.6 19.6   704 – Lincoln Laboratory ETS, New Mexico MPS 149340
2005 09 14.43228 05 01 04.26 +28 49 10.2 19.8   704 – Lincoln Laboratory ETS, New Mexico MPS 149340
2005 09 14.44474 05 01 05.07 +28 49 08.8 19.5   704 – Lincoln Laboratory ETS, New Mexico MPS 149340
2005 09 14.45721 05 01 05.91 +28 49 08.7 19.5   704 – Lincoln Laboratory ETS, New Mexico MPS 149340
2005 09 14.46967 05 01 06.77 +28 49 07.5 19.6   704 – Lincoln Laboratory ETS, New Mexico MPS 149340
2005 10 29.32992 05 24 42.65 +26 14 34.8 19.1   704 – Lincoln Laboratory ETS, New Mexico MPS 149340
2005 10 29.34304 05 24 42.48 +26 14 29.9 19.8   704 – Lincoln Laboratory ETS, New Mexico MPS 149340
2005 10 29.36984 05 24 42.01 +26 14 20.5 19.4   704 – Lincoln Laboratory ETS, New Mexico MPS 149340
2005 11 01.37243 05 23 52.65 +25 56 10.1 18.6   704 – Lincoln Laboratory ETS, New Mexico MPS 149340
2005 11 01.38485 05 23 52.38 +25 56 05.8 19.2   704 – Lincoln Laboratory ETS, New Mexico MPS 149340
2005 11 01.39872 05 23 52.10 +25 56 00.3 19.4   704 – Lincoln Laboratory ETS, New Mexico MPS 149340
2005 11 01.41103 05 23 51.81 +25 55 55.4 19.0   704 – Lincoln Laboratory ETS, New Mexico MPS 149340
2005 11 01.42315 05 23 51.56 +25 55 51.3 19.3   704 – Lincoln Laboratory ETS, New Mexico MPS 149340
2005 11 01.45299 05 23 50.89 +25 55 39.5 18.0 V G96 – Mt. Lemmon Survey MPS 149340
2005 11 01.46250 05 23 50.67 +25 55 35.9 17.9 V G96 – Mt. Lemmon Survey MPS 149340
2005 11 01.47206 05 23 50.49 +25 55 32.3 17.9 V G96 – Mt. Lemmon Survey MPS 149340
2005 11 01.48171 05 23 50.28 +25 55 28.5 18.0 V G96 – Mt. Lemmon Survey MPS 149340
2005 11 08.33976 05 20 45.24 +25 09 52.1 18.8   704 – Lincoln Laboratory ETS, New Mexico MPS 149340
2005 11 08.35240 05 20 44.79 +25 09 46.9 19.2   704 – Lincoln Laboratory ETS, New Mexico MPS 149340
2005 11 08.36547 05 20 44.45 +25 09 41.8 19.3   704 – Lincoln Laboratory ETS, New Mexico MPS 149340
2005 11 08.37846 05 20 43.88 +25 09 35.4 19.1   704 – Lincoln Laboratory ETS, New Mexico MPS 149340
2005 11 08.39128 05 20 43.40 +25 09 29.6 19.1   704 – Lincoln Laboratory ETS, New Mexico MPS 149340
2005 11 22.26368 05 10 08.66 +23 20 58.0 18.6 V 691 – Steward Observatory, Kitt Peak-Spacewatch MPS 151924
2005 11 22.28449 05 10 07.46 +23 20 47.4 18.7 V 691 – Steward Observatory, Kitt Peak-Spacewatch MPS 151924
2005 11 22.30297 05 10 06.37 +23 20 38.0 18.5 V 691 – Steward Observatory, Kitt Peak-Spacewatch MPS 151924
2005 11 25.41068 05 07 07.60 +22 53 46.2 17.8 V G96 – Mt. Lemmon Survey MPS 151924
2005 11 25.41697 05 07 07.21 +22 53 42.8 17.8 V G96 – Mt. Lemmon Survey MPS 151924
